GORIZONT 4 [-]

Last updated on Mon Jun 26 2023 01:02:57 GMT+0100 (British Summer Time)

1 11841U 80049A 23176.38848007 -.00000049 00000+0 00000+0 0 9995 2 11841 9.7433 305.1559 0001104 161.1214 229.0639 0.98628636222828
UTC large
Height (km)
Speed (km/s)
/
Latitude / Longitude
Inclination (degrees)
Orbital Period (minutes)
Azimuth
Elevation
Range (km)
Doppler Factor

Next 0 passes for location: London (51.5072 / 0.1276)

Sorry there are no passes over London.